TimeCDT,TemperatureF,Dew PointF,Humidity,Sea Level PressureIn,VisibilityMPH,Wind Direction,Wind SpeedMPH,Gust SpeedMPH,PrecipitationIn,Events,Conditions,WindDirDegrees,DateUTC
12:05 AM,37.4,35.6,93,29.97,10.0,Calm,Calm,-,N/A,,Clear,0,2013-10-08 05:05:00
12:25 AM,37.4,35.6,93,29.97,7.0,Calm,Calm,-,N/A,,Clear,0,2013-10-08 05:25:00
12:45 AM,37.4,35.6,93,29.97,10.0,Calm,Calm,-,N/A,,Clear,0,2013-10-08 05:45:00
1:05 AM,37.4,35.6,93,29.97,10.0,Calm,Calm,-,N/A,,Clear,0,2013-10-08 06:05:00
1:25 AM,35.6,35.6,100,29.97,10.0,Calm,Calm,-,N/A,,Clear,0,2013-10-08 06:25:00
1:45 AM,35.6,35.6,100,29.97,10.0,Calm,Calm,-,N/A,,Clear,0,2013-10-08 06:45:00
2:05 AM,35.6,35.6,100,29.97,10.0,Calm,Calm,-,N/A,,Clear,0,2013-10-08 07:05:00
2:25 AM,35.6,35.6,100,29.96,10.0,Calm,Calm,-,N/A,,Clear,0,2013-10-08 07:25:00
2:45 AM,35.6,35.6,100,29.95,10.0,Calm,Calm,-,N/A,,Clear,0,2013-10-08 07:45:00
3:05 AM,35.6,35.6,100,29.94,10.0,Calm,Calm,-,N/A,,Clear,0,2013-10-08 08:05:00
3:25 AM,35.6,35.6,100,29.94,10.0,Calm,Calm,-,N/A,,Clear,0,2013-10-08 08:25:00
3:45 AM,39.2,37.4,93,29.94,10.0,Calm,Calm,-,N/A,,Clear,0,2013-10-08 08:45:00
4:05 AM,41.0,39.2,93,29.94,10.0,SE,3.5,-,N/A,,Clear,140,2013-10-08 09:05:00
4:25 AM,41.0,41.0,100,29.93,10.0,Calm,Calm,-,N/A,,Clear,0,2013-10-08 09:25:00
4:45 AM,42.8,41.0,93,29.93,10.0,SE,3.5,-,N/A,,Clear,140,2013-10-08 09:45:00
5:05 AM,44.6,41.0,87,29.92,10.0,Calm,Calm,-,N/A,,Clear,0,2013-10-08 10:05:00
5:25 AM,46.4,41.0,81,29.92,10.0,Calm,Calm,-,N/A,,Clear,0,2013-10-08 10:25:00
5:45 AM,46.4,41.0,81,29.92,10.0,SE,3.5,-,N/A,,Clear,140,2013-10-08 10:45:00
6:05 AM,46.4,41.0,81,29.92,10.0,SE,3.5,-,N/A,,Clear,140,2013-10-08 11:05:00
6:25 AM,46.4,41.0,81,29.91,10.0,SE,4.6,-,N/A,,Clear,140,2013-10-08 11:25:00
7:05 AM,46.4,41.0,81,29.90,10.0,SE,4.6,-,N/A,,Clear,140,2013-10-08 12:05:00
7:25 AM,46.4,41.0,81,29.90,10.0,SE,5.8,-,N/A,,Clear,140,2013-10-08 12:25:00
7:45 AM,48.2,41.0,76,29.90,10.0,SSE,4.6,-,N/A,,Clear,150,2013-10-08 12:45:00
8:05 AM,48.2,41.0,76,29.90,10.0,SSE,5.8,-,N/A,,Clear,150,2013-10-08 13:05:00
8:25 AM,51.8,42.8,71,29.89,10.0,SSE,5.8,-,N/A,,Clear,150,2013-10-08 13:25:00
8:45 AM,51.8,41.0,67,29.88,10.0,SSE,8.1,-,N/A,,Clear,150,2013-10-08 13:45:00
9:05 AM,53.6,42.8,67,29.88,10.0,SSE,9.2,-,N/A,,Clear,160,2013-10-08 14:05:00
9:25 AM,55.4,44.6,67,29.88,10.0,SSE,9.2,16.1,N/A,,Clear,160,2013-10-08 14:25:00
9:57 AM,57.2,42.8,59,29.88,10.0,South,11.5,-,N/A,,Clear,170,2013-10-08 14:57:00
10:14 AM,59.0,42.8,55,29.87,10.0,South,10.4,17.3,N/A,,Clear,170,2013-10-08 15:14:00
10:34 AM,60.8,42.8,52,29.87,10.0,South,11.5,18.4,N/A,,Clear,180,2013-10-08 15:34:00
10:54 AM,62.6,44.6,52,29.86,10.0,SSE,11.5,16.1,N/A,,Clear,160,2013-10-08 15:54:00
11:14 AM,64.4,46.4,52,29.85,10.0,SSE,10.4,-,N/A,,Clear,160,2013-10-08 16:14:00
11:34 AM,64.4,44.6,49,29.85,10.0,South,11.5,17.3,N/A,,Clear,180,2013-10-08 16:34:00
11:54 AM,68.0,44.6,43,29.85,10.0,South,12.7,19.6,N/A,,Clear,180,2013-10-08 16:54:00
12:14 PM,68.0,44.6,43,29.84,10.0,South,15.0,21.9,N/A,,Clear,170,2013-10-08 17:14:00
12:34 PM,69.8,46.4,43,29.84,10.0,South,13.8,20.7,N/A,,Clear,180,2013-10-08 17:34:00
12:54 PM,69.8,44.6,40,29.83,10.0,South,15.0,24.2,N/A,,Clear,190,2013-10-08 17:54:00
1:14 PM,69.8,44.6,40,29.82,10.0,South,17.3,24.2,N/A,,Clear,190,2013-10-08 18:14:00
1:34 PM,71.6,44.6,38,29.81,10.0,South,18.4,23.0,N/A,,Clear,180,2013-10-08 18:34:00
1:54 PM,73.4,44.6,36,29.81,10.0,South,16.1,25.3,N/A,,Clear,170,2013-10-08 18:54:00
2:14 PM,71.6,42.8,35,29.80,10.0,South,19.6,27.6,N/A,,Clear,180,2013-10-08 19:14:00
2:34 PM,73.4,42.8,33,29.80,10.0,South,19.6,27.6,N/A,,Clear,190,2013-10-08 19:34:00
2:54 PM,73.4,42.8,33,29.79,10.0,South,16.1,29.9,N/A,,Clear,190,2013-10-08 19:54:00
3:14 PM,73.4,44.6,36,29.79,10.0,South,15.0,29.9,N/A,,Clear,190,2013-10-08 20:14:00
3:34 PM,71.6,44.6,38,29.79,10.0,South,19.6,25.3,N/A,,Clear,190,2013-10-08 20:34:00
3:54 PM,73.4,42.8,33,29.80,10.0,South,19.6,28.8,N/A,,Clear,180,2013-10-08 20:54:00
4:14 PM,71.6,44.6,38,29.80,10.0,South,16.1,26.5,N/A,,Clear,190,2013-10-08 21:14:00
4:34 PM,71.6,42.8,35,29.80,10.0,SSW,18.4,24.2,N/A,,Clear,200,2013-10-08 21:34:00
4:55 PM,69.8,42.8,38,29.80,10.0,South,13.8,24.2,N/A,,Clear,180,2013-10-08 21:55:00
5:14 PM,69.8,42.8,38,29.80,10.0,South,12.7,17.3,N/A,,Clear,170,2013-10-08 22:14:00
5:34 PM,69.8,44.6,40,29.80,10.0,South,9.2,-,N/A,,Clear,170,2013-10-08 22:34:00
5:54 PM,69.8,44.6,40,29.80,10.0,South,10.4,-,N/A,,Clear,170,2013-10-08 22:54:00
6:14 PM,69.8,44.6,40,29.81,10.0,South,10.4,-,N/A,,Clear,170,2013-10-08 23:14:00
6:34 PM,68.0,42.8,40,29.81,10.0,South,11.5,16.1,N/A,,Clear,170,2013-10-08 23:34:00
6:54 PM,66.2,42.8,43,29.81,10.0,South,8.1,-,N/A,,Clear,170,2013-10-08 23:54:00
7:15 PM,64.4,42.8,45,29.83,10.0,South,8.1,-,N/A,,Clear,180,2013-10-09 00:15:00
7:34 PM,64.4,44.6,49,29.84,10.0,South,5.8,-,N/A,,Clear,180,2013-10-09 00:34:00
7:55 PM,64.4,44.6,49,29.85,10.0,South,5.8,-,N/A,,Clear,170,2013-10-09 00:55:00
8:14 PM,62.6,42.8,48,29.85,10.0,SSE,4.6,-,N/A,,Clear,160,2013-10-09 01:14:00
8:34 PM,62.6,42.8,48,29.86,10.0,SSE,3.5,-,N/A,,Clear,160,2013-10-09 01:34:00
8:54 PM,60.8,42.8,52,29.86,10.0,SSE,4.6,-,N/A,,Clear,160,2013-10-09 01:54:00
9:14 PM,60.8,42.8,52,29.87,10.0,SSE,4.6,-,N/A,,Clear,160,2013-10-09 02:14:00
9:35 PM,59.0,42.8,55,29.87,10.0,South,6.9,-,N/A,,Clear,170,2013-10-09 02:35:00
9:54 PM,60.8,42.8,52,29.87,10.0,South,10.4,-,N/A,,Clear,170,2013-10-09 02:54:00
10:14 PM,60.8,42.8,52,29.87,10.0,South,9.2,-,N/A,,Clear,180,2013-10-09 03:14:00
10:35 PM,60.8,42.8,52,29.88,10.0,South,12.7,19.6,N/A,,Clear,190,2013-10-09 03:35:00
10:54 PM,62.6,44.6,52,29.89,10.0,South,11.5,18.4,N/A,,Clear,190,2013-10-09 03:54:00
11:14 PM,62.6,44.6,52,29.89,10.0,South,12.7,-,N/A,,Clear,190,2013-10-09 04:14:00
11:35 PM,62.6,44.6,52,29.90,10.0,South,13.8,-,N/A,,Clear,190,2013-10-09 04:35:00
11:54 PM,62.6,44.6,52,29.90,10.0,South,12.7,18.4,N/A,,Clear,190,2013-10-09 04:54:00